When you browse on this site, cookies collect data to enhance your experience and personalize the content and advertising you see.
Visit our Privacy Policy to learn more. By continuing to use the site, you agree to this use of cookies and data.
  • In United Kingdom
  • List of Countries
  • For 7 days
  • Water Temperature
  • Satellite Maps
  • Weather Map
  • Weather Widgets
  • user-avatar
    Login

    Hourly Weather Vsini

    Today, 23 April, Tuesday

    Time Temperature Precipitation Wind Pressure Humidity
    00:00 +10°C° 0 mm 1 mps 765 mmHg 59%
    01:00 +10°C° 0 mm 1 mps 765 mmHg 61%
    02:00 +9°C° 0 mm 1 mps 765 mmHg 62%
    03:00 +9°C° 0 mm 1 mps 765 mmHg 64%
    04:00 +9°C° 0 mm 1 mps 765 mmHg 65%
    05:00 +9°C° 0 mm 1 mps 765 mmHg 67%
    06:00 +11°C° 0 mm 1 mps 765 mmHg 61%
    07:00 +13°C° 0 mm 1 mps 765 mmHg 56%
    08:00 +15°C° 0 mm 1 mps 766 mmHg 49%
    09:00 +18°C° 0 mm 1 mps 766 mmHg 44%
    10:00 +20°C° 0 mm 1 mps 766 mmHg 39%
    11:00 +22°C° 0 mm 1 mps 766 mmHg 34%
    12:00 +22°C° 0 mm 1 mps 766 mmHg 32%
    13:00 +22°C° 0 mm 1 mps 766 mmHg 31%
    14:00 +23°C° 0 mm 1 mps 765 mmHg 30%
    15:00 +22°C° 0 mm 1 mps 765 mmHg 31%
    16:00 +22°C° 0 mm 1 mps 765 mmHg 32%
    17:00 +21°C° 0 mm 1 mps 765 mmHg 33%
    18:00 +19°C° 0 mm 1 mps 765 mmHg 40%
    19:00 +16°C° 0 mm 1 mps 765 mmHg 46%
    20:00 +14°C° 0 mm 1 mps 765 mmHg 53%
    21:00 +13°C° 0 mm 1 mps 765 mmHg 54%
    22:00 +11°C° 0 mm 0 mps 765 mmHg 55%
    23:00 +11°C° 0 mm 0 mps 765 mmHg 56%

    Tomorrow, 24 April, Wednesday

    Time Temperature Precipitation Wind Pressure Humidity
    00:00 +10°C° 0 mm 0 mps 765 mmHg 58%
    01:00 +10°C° 0 mm 0 mps 766 mmHg 59%
    02:00 +9°C° 0 mm 0 mps 766 mmHg 60%
    03:00 +9°C° 0 mm 0 mps 766 mmHg 61%
    04:00 +8°C° 0 mm 0 mps 766 mmHg 63%
    05:00 +8°C° 0 mm 0 mps 766 mmHg 64%
    06:00 +10°C° 0 mm 0 mps 766 mmHg 58%
    07:00 +13°C° 0 mm 0 mps 766 mmHg 51%
    08:00 +16°C° 0 mm 1 mps 766 mmHg 45%
    09:00 +19°C° 0 mm 1 mps 766 mmHg 40%
    10:00 +21°C° 0 mm 1 mps 766 mmHg 35%
    11:00 +23°C° 0 mm 1 mps 766 mmHg 30%
    12:00 +23°C° 0 mm 1 mps 766 mmHg 29%
    13:00 +23°C° 0 mm 1 mps 766 mmHg 28%
    14:00 +24°C° 0 mm 1 mps 765 mmHg 26%
    15:00 +23°C° 0 mm 1 mps 765 mmHg 27%
    16:00 +23°C° 0 mm 1 mps 765 mmHg 29%
    17:00 +22°C° 0 mm 1 mps 764 mmHg 30%
    18:00 +20°C° 0 mm 1 mps 764 mmHg 35%
    19:00 +16°C° 0 mm 0 mps 764 mmHg 41%
    20:00 +14°C° 0 mm 0 mps 764 mmHg 47%
    21:00 +13°C° 0 mm 0 mps 764 mmHg 49%
    22:00 +13°C° 0 mm 1 mps 764 mmHg 51%
    23:00 +13°C° 0 mm 1 mps 764 mmHg 54%

    Day after tomorrow, 25 April, Thursday

    Time Temperature Precipitation Wind Pressure Humidity
    00:00 +13°C° 0 mm 1 mps 764 mmHg 54%
    01:00 +13°C° 0 mm 1 mps 764 mmHg 55%
    02:00 +13°C° 0 mm 1 mps 764 mmHg 56%
    03:00 +13°C° 0 mm 1 mps 764 mmHg 57%
    04:00 +13°C° 0 mm 1 mps 764 mmHg 59%
    05:00 +13°C° 0 mm 1 mps 764 mmHg 60%
    06:00 +14°C° 0 mm 1 mps 764 mmHg 56%
    07:00 +16°C° 0 mm 1 mps 764 mmHg 52%
    08:00 +19°C° 0 mm 1 mps 764 mmHg 47%
    09:00 +20°C° 0 mm 1 mps 764 mmHg 42%
    10:00 +20°C° 0 mm 2 mps 764 mmHg 37%
    11:00 +23°C° 0 mm 2 mps 763 mmHg 32%
    12:00 +23°C° 0 mm 2 mps 763 mmHg 32%
    13:00 +23°C° 0 mm 2 mps 763 mmHg 32%
    14:00 +23°C° 0 mm 1 mps 762 mmHg 32%
    15:00 +22°C° 0 mm 1 mps 762 mmHg 36%
    16:00 +22°C° 0 mm 1 mps 762 mmHg 40%
    17:00 +21°C° 0 mm 1 mps 762 mmHg 44%
    18:00 +20°C° 0 mm 1 mps 761 mmHg 49%
    19:00 +17°C° 0 mm 2 mps 761 mmHg 53%
    20:00 +16°C° 0 mm 2 mps 761 mmHg 58%
    21:00 +16°C° 0 mm 2 mps 761 mmHg 59%
    22:00 +16°C° 0 mm 2 mps 761 mmHg 60%
    23:00 +15°C° 0 mm 1 mps 761 mmHg 61%

    26 April, Friday

    Time Temperature Precipitation Wind Pressure Humidity
    00:00 +15°C° 0 mm 1 mps 761 mmHg 63%
    01:00 +14°C° 0 mm 1 mps 761 mmHg 65%
    02:00 +13°C° 0 mm 1 mps 761 mmHg 67%
    03:00 +13°C° 0 mm 1 mps 760 mmHg 68%
    04:00 +13°C° 0 mm 1 mps 760 mmHg 69%
    05:00 +12°C° 0 mm 1 mps 760 mmHg 70%
    06:00 +13°C° 0.3 mm 1 mps 760 mmHg 72%
    07:00 +13°C° 0.3 mm 1 mps 760 mmHg 75%
    08:00 +13°C° 0.3 mm 1 mps 760 mmHg 77%
    09:00 +14°C° 0.2 mm 1 mps 759 mmHg 76%
    10:00 +14°C° 0.2 mm 2 mps 759 mmHg 75%
    11:00 +15°C° 0.2 mm 2 mps 759 mmHg 75%
    12:00 +16°C° 0 mm 2 mps 759 mmHg 70%
    13:00 +17°C° 0 mm 2 mps 758 mmHg 64%
    14:00 +18°C° 0 mm 2 mps 758 mmHg 59%
    15:00 +18°C° 0 mm 2 mps 758 mmHg 59%
    16:00 +18°C° 0 mm 2 mps 757 mmHg 59%
    17:00 +19°C° 0 mm 2 mps 757 mmHg 59%
    18:00 +17°C° 0 mm 2 mps 757 mmHg 65%
    19:00 +16°C° 0 mm 2 mps 756 mmHg 70%
    20:00 +14°C° 0 mm 1 mps 756 mmHg 76%
    21:00 +14°C° 0 mm 1 mps 756 mmHg 75%
    22:00 +14°C° 0 mm 1 mps 756 mmHg 75%
    23:00 +14°C° 0 mm 1 mps 755 mmHg 75%

    27 April, Saturday

    Time Temperature Precipitation Wind Pressure Humidity
    00:00 +14°C° 0 mm 1 mps 755 mmHg 77%
    01:00 +13°C° 0 mm 1 mps 755 mmHg 79%
    02:00 +13°C° 0 mm 1 mps 754 mmHg 81%
    03:00 +12°C° 0 mm 1 mps 754 mmHg 83%
    04:00 +12°C° 0 mm 1 mps 754 mmHg 84%
    05:00 +11°C° 0 mm 1 mps 753 mmHg 86%
    06:00 +13°C° 0 mm 1 mps 753 mmHg 78%
    07:00 +15°C° 0 mm 1 mps 753 mmHg 70%
    08:00 +18°C° 0 mm 1 mps 753 mmHg 61%
    09:00 +20°C° 0 mm 1 mps 752 mmHg 56%
    10:00 +21°C° 0 mm 1 mps 752 mmHg 50%
    11:00 +23°C° 0 mm 1 mps 752 mmHg 44%
    12:00 +24°C° 0 mm 1 mps 752 mmHg 42%
    13:00 +24°C° 0 mm 1 mps 751 mmHg 40%
    14:00 +25°C° 0 mm 1 mps 751 mmHg 38%
    15:00 +24°C° 0 mm 1 mps 751 mmHg 41%
    16:00 +24°C° 0 mm 2 mps 751 mmHg 43%
    17:00 +23°C° 0 mm 2 mps 750 mmHg 46%
    18:00 +20°C° 0.1 mm 2 mps 750 mmHg 54%
    19:00 +18°C° 0.1 mm 2 mps 750 mmHg 63%
    20:00 +16°C° 0.1 mm 3 mps 751 mmHg 71%
    21:00 +16°C° 0 mm 3 mps 751 mmHg 74%
    22:00 +14°C° 0 mm 3 mps 751 mmHg 77%
    23:00 +13°C° 0 mm 3 mps 751 mmHg 79%

    28 April, Sunday

    Time Temperature Precipitation Wind Pressure Humidity
    00:00 +13°C° 0 mm 3 mps 751 mmHg 80%
    01:00 +12°C° 0 mm 3 mps 751 mmHg 80%
    02:00 +11°C° 0 mm 3 mps 751 mmHg 81%
    03:00 +11°C° 0 mm 3 mps 751 mmHg 79%
    04:00 +10°C° 0 mm 3 mps 752 mmHg 78%
    05:00 +10°C° 0 mm 4 mps 752 mmHg 76%
    06:00 +11°C° 0 mm 4 mps 752 mmHg 70%
    07:00 +12°C° 0 mm 5 mps 753 mmHg 65%
    08:00 +13°C° 0 mm 5 mps 753 mmHg 59%
    09:00 +15°C° 0 mm 5 mps 753 mmHg 55%
    10:00 +16°C° 0 mm 5 mps 753 mmHg 50%
    11:00 +17°C° 0 mm 5 mps 754 mmHg 46%
    12:00 +17°C° 0 mm 5 mps 754 mmHg 44%
    13:00 +19°C° 0 mm 5 mps 754 mmHg 43%
    14:00 +19°C° 0 mm 5 mps 754 mmHg 42%
    15:00 +19°C° 0 mm 5 mps 754 mmHg 43%
    16:00 +18°C° 0 mm 4 mps 754 mmHg 44%
    17:00 +18°C° 0 mm 4 mps 754 mmHg 45%
    18:00 +15°C° 0 mm 4 mps 755 mmHg 49%
    19:00 +14°C° 0 mm 3 mps 755 mmHg 54%
    20:00 +12°C° 0 mm 3 mps 756 mmHg 59%
    21:00 +11°C° 0 mm 3 mps 756 mmHg 58%
    22:00 +10°C° 0 mm 3 mps 756 mmHg 58%
    23:00 +9°C° 0 mm 3 mps 757 mmHg 57%
    Show more